This is the latest recevied weather packets stored in our database for station/object DL3NDS-WX. If no packets are shown the sender has not sent any weather packets the latest 10 day(s).
| Time | Temp. | Humidity | Pressure | Rain* | Wind** | Luminosity | Snow |
|---|---|---|---|---|---|---|---|
| 1787910154 | 21.11° C | 82% | 1013.3 hPa | 0 mm | - | 114 W/m² | - |
| 1787910093 | 21.11° C | 81% | 1013.4 hPa | 0 mm | - | 113 W/m² | - |
| 1787910034 | 21.11° C | 81% | 1013.5 hPa | 0 mm | - | 111 W/m² | - |
| 1787909970 | 21.11° C | 81% | 1013.5 hPa | 0 mm | - | 109 W/m² | - |
| 1787909909 | 21.11° C | 81% | 1013.5 hPa | 0 mm | - | 109 W/m² | - |
| 1787909847 | 21.11° C | 80% | 1013.6 hPa | 0 mm | - | 109 W/m² | - |
| 1787909786 | 21.11° C | 81% | 1013.5 hPa | 0 mm | - | 113 W/m² | - |
| 1787909728 | 21.11° C | 81% | 1013.5 hPa | 0 mm | - | 123 W/m² | - |
| 1787909674 | 21.11° C | 80% | 1013.5 hPa | 0 mm | - | 148 W/m² | - |
| 1787909601 | 21.11° C | 80% | 1013.4 hPa | 0 mm | - | 165 W/m² | - |
| 1787909552 | 21.11° C | 80% | 1013.4 hPa | 0 mm | - | 185 W/m² | - |
| 1787909518 | 21.67° C | 79% | 1013.4 hPa | 0 mm | - | 206 W/m² | - |
| 1787909482 | 21.67° C | 79% | 1013.4 hPa | 0 mm | - | 274 W/m² | - |
| 1787909357 | 21.67° C | 79% | 1013.3 hPa | 0 mm | - | 237 W/m² | - |
| 1787909295 | 21.67° C | 79% | 1013.2 hPa | 0 mm | - | 251 W/m² | - |
| 1787909234 | 21.67° C | 79% | 1013.2 hPa | 0 mm | - | 281 W/m² | - |
| 1787909172 | 21.67° C | 78% | 1013.2 hPa | 0 mm | - | 250 W/m² | - |
| 1787909109 | 21.67° C | 78% | 1013.3 hPa | 0 mm | - | 244 W/m² | - |
| 1787909051 | 21.67° C | 78% | 1013.5 hPa | 0 mm | - | 446 W/m² | - |
| 1787908989 | 21.67° C | 79% | 1013.5 hPa | 0 mm | - | 401 W/m² | - |
| 1787908927 | 21.67° C | 79% | 1013.6 hPa | 0 mm | - | 378 W/m² | - |
| 1787908868 | 21.67° C | 79% | 1013.6 hPa | 0 mm | - | 320 W/m² | - |
| 1787908806 | 21.67° C | 78% | 1013.6 hPa | 0 mm | - | 292 W/m² | - |
| 1787908750 | 21.67° C | 78% | 1013.7 hPa | 0 mm | - | 339 W/m² | - |
| 1787908685 | 21.67° C | 80% | 1013.7 hPa | 0 mm | - | 327 W/m² | - |
* Rain latest hour (hover to see other rain measurements)
** Current wind speed in m/s (hover to see current wind gust speed)